timestamp,surface_pressure_avg,surface_temp_avg,battery_voltage,lat,long
2021-09-23 00:09:01+00:00,350.2062,14.6,12.73,47.84626,-54.09684
2021-09-23 00:19:01+00:00,355.8812,14.6,12.73,47.84626,-54.09684
2021-09-23 00:29:01+00:00,359.0464,14.6,12.73,47.84626,-54.09684
2021-09-23 00:39:01+00:00,357.8696,14.59,12.73,47.84626,-54.09684
2021-09-23 00:49:01+00:00,359.8312,14.56,12.73,47.84626,-54.09684
2021-09-23 00:59:01+00:00,362.068,14.57,12.73,47.84626,-54.09684
2021-09-23 01:09:01+00:00,358.1296,14.56,12.73,47.84626,-54.09684
2021-09-23 01:19:01+00:00,356.0529,14.57,12.73,47.84626,-54.09684
2021-09-23 01:29:01+00:00,357.7712,14.58,12.73,47.84626,-54.09684
2021-09-23 01:39:01+00:00,354.2845,14.58,12.73,47.84626,-54.09684
2021-09-23 01:49:01+00:00,346.4612,14.59,12.73,47.84626,-54.09684
2021-09-23 01:59:01+00:00,344.423,14.6,12.73,47.84626,-54.09684
2021-09-23 02:09:01+00:00,342.4013,14.6,12.73,47.84626,-54.09684
2021-09-23 02:19:01+00:00,336.283,14.6,12.73,47.84626,-54.09684
2021-09-23 02:29:01+00:00,331.9797,14.59,12.73,47.84626,-54.09684
2021-09-23 02:39:01+00:00,329.9247,14.54,12.73,47.84626,-54.09684
2021-09-23 02:49:01+00:00,323.4697,14.53,12.73,47.84626,-54.09684
2021-09-23 02:59:01+00:00,313.893,14.52,12.73,47.84626,-54.09684
2021-09-23 03:09:01+00:00,313.7529,14.54,12.73,47.84626,-54.09684
2021-09-23 03:19:01+00:00,309.6379,14.53,12.73,47.84626,-54.09684
2021-09-23 03:29:01+00:00,297.7946,14.52,12.73,47.84626,-54.09684
2021-09-23 03:39:01+00:00,288.9197,14.5,12.73,47.84626,-54.09684
2021-09-23 03:49:01+00:00,286.0764,14.5,12.73,47.84626,-54.09684
2021-09-23 03:59:01+00:00,277.1897,14.51,12.73,47.84626,-54.09684
2021-09-23 04:09:01+00:00,265.1248,14.5,12.73,47.84626,-54.09684
2021-09-23 04:19:01+00:00,257.7648,14.5,12.73,47.84626,-54.09684
2021-09-23 04:29:01+00:00,249.2231,14.5,12.73,47.84626,-54.09684
2021-09-23 04:39:01+00:00,238.4131,14.5,12.73,47.84626,-54.09684
2021-09-23 04:49:01+00:00,230.9297,14.5,12.73,47.84626,-54.09684
2021-09-23 04:59:01+00:00,224.6031,14.5,12.73,47.84626,-54.09684
2021-09-23 05:09:01+00:00,214.9348,14.5,12.73,47.84626,-54.09684
2021-09-23 05:19:00+00:00,206.4948,14.5,12.73,47.84626,-54.09684
2021-09-23 05:29:00+00:00,202.4748,14.54,12.73,47.84626,-54.09684
2021-09-23 05:39:00+00:00,196.8665,14.6,12.73,47.84626,-54.09684
2021-09-23 05:49:00+00:00,189.4965,14.6,12.73,47.84626,-54.09684
2021-09-23 05:59:00+00:00,186.2898,14.69,12.73,47.84626,-54.09684
2021-09-23 06:09:00+00:00,185.5081,14.7,12.73,47.84626,-54.09684
2021-09-23 06:19:00+00:00,182.3231,14.7,12.73,47.84626,-54.09684
2021-09-23 06:29:00+00:00,181.2531,14.7,12.73,47.84626,-54.09684
2021-09-23 06:39:00+00:00,182.6964,14.7,12.73,47.84626,-54.09684
2021-09-23 06:49:00+00:00,183.5148,14.7,12.73,47.84626,-54.09684
2021-09-23 06:59:00+00:00,184.3948,14.7,12.73,47.84626,-54.09684
2021-09-23 07:09:00+00:00,187.6131,14.7,12.73,47.84626,-54.09684
2021-09-23 07:19:01+00:00,190.3948,14.7,12.65,47.84626,-54.09684
2021-09-23 07:29:01+00:00,191.3515,14.7,12.65,47.84626,-54.09684
2021-09-23 07:39:01+00:00,195.8615,14.7,12.65,47.84626,-54.09684
2021-09-23 07:49:01+00:00,202.6165,14.7,12.65,47.84626,-54.09684
2021-09-23 07:59:01+00:00,206.2097,14.7,12.65,47.84626,-54.09684
2021-09-23 08:09:01+00:00,210.6448,14.7,12.65,47.84626,-54.09684
2021-09-23 08:19:00+00:00,217.2664,14.7,12.65,47.84626,-54.09684
2021-09-23 08:29:00+00:00,221.8764,14.69,12.65,47.84626,-54.09684
2021-09-23 08:39:00+00:00,226.2131,14.67,12.65,47.84626,-54.09684
2021-09-23 08:49:00+00:00,230.9231,14.65,12.65,47.84626,-54.09684
2021-09-23 08:59:00+00:00,237.5214,14.63,12.65,47.84626,-54.09684
2021-09-23 09:09:00+00:00,242.8081,14.65,12.65,47.84626,-54.09684
2021-09-23 09:19:00+00:00,245.2781,14.67,12.65,47.84626,-54.09684
2021-09-23 09:29:00+00:00,249.0497,14.68,12.65,47.84626,-54.09684
2021-09-23 09:39:00+00:00,254.8364,14.68,12.65,47.84626,-54.09684
2021-09-23 09:49:00+00:00,259.6564,14.68,12.65,47.84626,-54.09684
2021-09-23 09:59:00+00:00,263.9497,14.68,12.65,47.84626,-54.09684
2021-09-23 10:09:00+00:00,268.5231,14.68,12.65,47.84626,-54.09684
2021-09-23 10:19:01+00:00,273.0281,14.67,13.13,47.84626,-54.09684
2021-09-23 10:29:01+00:00,277.8331,14.68,13.13,47.84626,-54.09684
2021-09-23 10:39:01+00:00,282.4881,14.69,13.13,47.84626,-54.09684
2021-09-23 10:49:01+00:00,287.1997,14.69,13.13,47.84626,-54.09684
2021-09-23 10:59:01+00:00,293.783,14.65,13.13,47.84626,-54.09684
2021-09-23 11:09:01+00:00,300.453,14.6,13.13,47.84626,-54.09684
2021-09-23 11:19:01+00:00,305.8431,14.6,14.24,47.84626,-54.09684
2021-09-23 11:29:01+00:00,314.3381,14.65,14.24,47.84626,-54.09684
2021-09-23 11:39:01+00:00,323.6813,14.65,14.24,47.84626,-54.09684
2021-09-23 11:49:01+00:00,331.1014,14.66,14.24,47.84626,-54.09684
2021-09-23 11:59:01+00:00,337.61300000000006,14.6,14.24,47.84626,-54.09684
2021-09-23 12:09:01+00:00,343.3896,14.6,14.24,47.84626,-54.09684
2021-09-23 12:19:01+00:00,349.278,14.59,14.4,47.84626,-54.09684
2021-09-23 12:29:01+00:00,353.4281,14.59,14.4,47.84626,-54.09684
2021-09-23 12:39:01+00:00,356.0829,14.6,14.4,47.84626,-54.09684
2021-09-23 12:49:01+00:00,357.7847,14.6,14.4,47.84626,-54.09684
2021-09-23 12:59:01+00:00,361.5646,14.6,14.4,47.84626,-54.09684
2021-09-23 13:09:01+00:00,360.2796,14.6,14.4,47.84626,-54.09684
2021-09-23 13:19:01+00:00,358.5648,14.59,14.4,47.84626,-54.09684
2021-09-23 13:29:01+00:00,363.0029,14.58,14.4,47.84626,-54.09684
2021-09-23 13:39:01+00:00,363.9329,14.59,14.4,47.84626,-54.09684
2021-09-23 13:49:01+00:00,358.2413,14.6,14.4,47.84626,-54.09684
2021-09-23 13:59:01+00:00,353.98800000000006,14.6,14.4,47.84626,-54.09684
2021-09-23 14:09:01+00:00,353.8863,14.6,14.4,47.84626,-54.09684
2021-09-23 14:19:01+00:00,347.5463,14.6,14.4,47.84626,-54.09684
2021-09-23 14:29:01+00:00,340.2030000000001,14.6,14.4,47.84626,-54.09684
2021-09-23 14:39:01+00:00,338.9147,14.6,14.4,47.84626,-54.09684
2021-09-23 14:49:01+00:00,335.1813,14.6,14.4,47.84626,-54.09684
2021-09-23 14:59:01+00:00,328.5847,14.6,14.4,47.84626,-54.09684
2021-09-23 15:09:01+00:00,323.6397,14.6,14.4,47.84626,-54.09684
2021-09-23 15:19:01+00:00,318.783,14.63,14.0,47.84626,-54.09684
2021-09-23 15:29:01+00:00,313.2714,14.66,14.0,47.84626,-54.09684
2021-09-23 15:39:01+00:00,305.078,14.69,14.0,47.84626,-54.09684
2021-09-23 15:49:01+00:00,297.4197,14.7,14.0,47.84626,-54.09684
2021-09-23 15:59:01+00:00,290.3998,14.7,14.0,47.84626,-54.09684
2021-09-23 16:09:01+00:00,283.0847,14.7,14.0,47.84626,-54.09684
2021-09-23 16:19:01+00:00,274.6347,14.7,14.24,47.84626,-54.09684
2021-09-23 16:29:01+00:00,267.5448,14.76,14.24,47.84626,-54.09684
2021-09-23 16:39:01+00:00,261.1481,14.8,14.24,47.84626,-54.09684
2021-09-23 16:49:01+00:00,253.4148,14.8,14.24,47.84626,-54.09684
2021-09-23 16:59:01+00:00,243.0231,14.86,14.24,47.84626,-54.09684
2021-09-23 17:09:01+00:00,233.9197,14.9,14.24,47.84626,-54.09684
2021-09-23 17:19:01+00:00,226.7648,14.9,14.08,47.84626,-54.09684
2021-09-23 17:29:01+00:00,217.6331,14.9,14.08,47.84626,-54.09684
2021-09-23 17:39:01+00:00,207.2598,14.94,14.08,47.84626,-54.09684
2021-09-23 17:49:01+00:00,198.7498,14.98,14.08,47.84626,-54.09684
2021-09-23 17:59:01+00:00,192.6948,15.0,14.08,47.84626,-54.09684
2021-09-23 18:09:01+00:00,184.0515,15.0,14.08,47.84626,-54.09684
2021-09-23 18:19:01+00:00,177.5182,15.04,13.76,47.84626,-54.09684
2021-09-23 18:29:01+00:00,174.8048,15.06,13.76,47.84626,-54.09684
2021-09-23 18:39:01+00:00,169.5232,15.06,13.76,47.84626,-54.09684
2021-09-23 18:49:01+00:00,165.3698,15.09,13.76,47.84626,-54.09684
2021-09-23 18:59:01+00:00,165.8832,15.1,13.76,47.84626,-54.09684
2021-09-23 19:09:01+00:00,167.1265,15.15,13.76,47.84626,-54.09684
2021-09-23 19:19:01+00:00,166.1498,15.19,13.68,47.84626,-54.09684
2021-09-23 19:29:01+00:00,166.8248,15.2,13.68,47.84626,-54.09684
2021-09-23 19:39:01+00:00,172.5248,15.27,13.68,47.84626,-54.09684
2021-09-23 19:49:01+00:00,177.8798,15.38,13.68,47.84626,-54.09684
2021-09-23 19:59:01+00:00,182.1815,15.47,13.68,47.84626,-54.09684
2021-09-23 20:09:01+00:00,186.8631,15.57,13.68,47.84626,-54.09684
2021-09-23 20:19:01+00:00,191.3081,15.7,13.44,47.84626,-54.09684
2021-09-23 20:29:01+00:00,197.0465,15.82,13.44,47.84626,-54.09684
2021-09-23 20:39:01+00:00,202.2515,15.9,13.44,47.84626,-54.09684
2021-09-23 20:49:01+00:00,208.1781,15.99,13.44,47.84626,-54.09684
2021-09-23 20:59:01+00:00,214.8948,16.03,13.44,47.84626,-54.09684
2021-09-23 21:09:01+00:00,219.3331,16.0,13.44,47.84626,-54.09684
2021-09-23 21:19:01+00:00,222.6397,15.96,13.21,47.84626,-54.09684
2021-09-23 21:29:01+00:00,229.2831,15.9,13.21,47.84626,-54.09684
2021-09-23 21:39:01+00:00,237.7215,15.9,13.21,47.84626,-54.09684
2021-09-23 21:49:01+00:00,244.3598,15.8,13.21,47.84626,-54.09684
2021-09-23 21:59:01+00:00,247.1747,15.7,13.21,47.84626,-54.09684
2021-09-23 22:09:01+00:00,252.7281,15.65,13.21,47.84626,-54.09684
2021-09-23 22:19:01+00:00,261.0064,15.59,12.81,47.84626,-54.09684
2021-09-23 22:29:01+00:00,266.9182,15.5,12.81,47.84626,-54.09684
2021-09-23 22:39:01+00:00,268.6614,15.5,12.81,47.84626,-54.09684
2021-09-23 22:49:01+00:00,276.3848,15.5,12.81,47.84626,-54.09684
2021-09-23 22:59:01+00:00,285.9031,15.3,12.81,47.84626,-54.09684
2021-09-23 23:09:01+00:00,292.1512,15.28,12.81,47.84626,-54.09684
2021-09-23 23:19:01+00:00,294.7764,15.4,12.73,47.84626,-54.09684
2021-09-23 23:29:01+00:00,303.3847,15.4,12.73,47.84626,-54.09684
2021-09-23 23:39:01+00:00,312.8446,15.3,12.73,47.84626,-54.09684
2021-09-23 23:49:01+00:00,313.0881,15.29,12.73,47.84626,-54.09684
2021-09-23 23:59:01+00:00,316.858,15.3,12.73,47.84626,-54.09684
